CZ-6A DEB, 61158

Orbit data source: Space-Track

CZ-6A DEB, 61158 is space debris in LEO originally from a launch on Tue, 06 Aug 2024 UTC launched from the Taiyaun Space Center, China (TSC). Debris objects in space refer to the collection of defunct objects orbiting the Earth. Examples of debris include non-operational satellites, rocket bodies, and fragments generated from explosions, collisions, or faulty payload assembly.

Loading next visibility...
Identifier
61158, 2024-140RC
Orbit
LEO
Country
Flag of CNCN / PRC
Related business
Manufacturer
SAST
Mission
Spacecraft
Bus & Motor
Unknown
Mass
Unknown
Launch date (UTC)
2024-08-06 (2 years ago)
Launch vehicle
Unknown
Launch site
Taiyaun Space Center, China (TSC)
Object type
Payload
Rocket body
Debris
Shape & HBR
Unknown shape, 0.1 m
Radar Cross Section
Small (<0.1 m²)

Expand to show TLE details & history
Last TLE update: 17 hours ago

TLE from 17 hours ago
0 CZ-6A DEB
1 61158U 24140RC  26171.19121218  .00001758  00000-0  68556-3 0  9998
2 61158  88.5021 233.5698 0088203  92.9606 268.1686 14.27124381 95033
Epoch: 2026-06-20T04:35Z
TLE epoch observation values (Epoch: 2026-06-20T04:35:20.732Z)
Latitude
Longitude
-103.67596°
Altitude
807.002 km
Speed
7.448 km/s
True Right ascension
15h 34m 16s
True Declination
0° 00' 00"
Sunlit
Object was in full shadow at epoch
Visualization orbit readout
Latitude
Unknown
Longitude
Unknown
Altitude
Unknown
Speed
Unknown
Apparent Right ascension
Unknown
Apparent Declination
Unknown
Sunlit
N/A
Visualization observer readout
Local Sidereal Time
08:42:20
Azimuth
Unknown
Elevation
Unknown
Doppler factor
Unknown
Orbital elements
Apogee altitude
861.601 km
Perigee altitude
735.005 km
Semi-major axis
7,176.44 km
Eccentricity
0.00882
Inclination
88.5021°
RAAN
233.5698°
Arg. of periapsis
92.9606°
True anomaly
267.15879°
Mean anomaly
268.1686°
Eccentric anomaly
267.66365°
Mean motion
3.57009 °/min
Orbital period
100.84 mins
BSTAR
0.00068556
Loading maneuver chart data...
Computing Atmospheric mass density...
Loading historical data...
Loading historical data...
Loading historical data...
Loading historical data...
Loading historical data...
Loading historical data...
Loading historical data...

Documentation

Showing up to 5 results
|